COSMOS 1275 DEB, 13466

Orbit data source: Space-Track

COSMOS 1275 DEB, 13466 is space debris in LEO originally from a launch on Thu, 04 Jun 1981 UTC launched from the Plesetsk Missile And Space Complex (PKMTR). Debris objects in space refer to the collection of defunct objects orbiting the Earth. Examples of debris include non-operational satellites, rocket bodies, and fragments generated from explosions, collisions, or faulty payload assembly.

Loading next visibility...
Identifier
13466, 1981-053FN
Orbit
LEO
Country
Flag of CISCIS
Related business
Manufacturer
Unknown
Mission
Spacecraft
Bus & Motor
Unknown
Mass
Unknown
Launch date (UTC)
1981-06-04 (45 years ago)
Launch vehicle
Unknown
Launch site
Plesetsk Missile And Space Complex (PKMTR)
Object type
Payload
Rocket body
Debris
Shape & HBR
Unknown shape, 0.1 m
Radar Cross Section
Medium (>0.1 m² and <1 m²)

Expand to show TLE details & history
Last TLE update: 2 days ago

TLE from 2 days ago
0 COSMOS 1275 DEB
1 13466U 81053FN  26171.48112138  .00000542  00000-0  65827-3 0  9994
2 13466  83.0708 183.4556 0138481 224.6582 290.6653 13.60596964181419
Epoch: 2026-06-20T11:32Z
TLE epoch observation values (Epoch: 2026-06-20T11:32:48.887Z)
Latitude
25.99733°
Longitude
-81.82334°
Altitude
1,001.687 km
Speed
7.37 km/s
True Right ascension
00h 00m 18s
True Declination
25° 51' 60"
Sunlit
Object was in daylight at epoch
Visualization orbit readout
Latitude
Unknown
Longitude
Unknown
Altitude
Unknown
Speed
Unknown
Apparent Right ascension
Unknown
Apparent Declination
Unknown
Sunlit
N/A
Visualization observer readout
Local Sidereal Time
22:50:40
Azimuth
Unknown
Elevation
Unknown
Doppler factor
Unknown
Orbital elements
Apogee altitude
1,133.285 km
Perigee altitude
928.088 km
Semi-major axis
7,408.824 km
Eccentricity
0.01385
Inclination
83.0708°
RAAN
183.4556°
Arg. of periapsis
224.6582°
True anomaly
289.17157°
Mean anomaly
290.6653°
Eccentric anomaly
289.91933°
Mean motion
3.40345 °/min
Orbital period
105.78 mins
BSTAR
0.00065827
Loading maneuver chart data...
Computing Atmospheric mass density...

Documentation

Showing up to 5 results
|